Location: Del Amo
(33.8464°N, 118.2104°W)
Time: 20:12:53
(UTC+00:00)

Courier 1B Rocket - Pass Details

Date: 21 September 2024
Orbit: 920 x 1201 km, 28.3° (Epoch: 13 October)

Event Time Altitude Azimuth Distance (km) Brightness Sun altitude
Rises 03:26:24 0° 263° (W) 3,787 9.3 -20.3°
Reaches altitude 10° 03:30:10 10° 244° (WSW) 2,891 8.1 -21.1°
Maximum altitude 03:34:21 17° 207° (SSW) 2,495 7.2 -21.9°
Drops below altitude 10° 03:38:41 10° 171° (S) 3,007 7.3 -22.8°
Enters shadow 03:38:57 - 169° (S) 3,059 7.3 -22.8°
